Waarnemingen

Advertentie
Mijn weer
Semmerzake, België (6428): temperatuur & dauwpunt: 20.01.2021 10:00:00 - 26.01.2021 10:00:00 (CET)Semmerzake, België (6428): windsnelheid & windstoten: 20.01.2021 10:00:00 - 26.01.2021 10:00:00 (CET)Semmerzake, België (6428): windrichting: 20.01.2021 10:00:00 - 26.01.2021 10:00:00 (CET)Semmerzake, België (6428): luchtdruk: 20.01.2021 10:00:00 - 26.01.2021 10:00:00 (CET)Semmerzake, België (6428): zicht: 20.01.2021 10:00:00 - 26.01.2021 10:00:00 (CET)
Datum & Tijd tt [°C] td [°C] ff [km/u] ff [kn] fx [km/u] fx [kn] dd ppp [hPa] vv [km]
26.01.2021 10:00:00 1,8 -0,6 11 6 - - ZW 1019,6 20
26.01.2021 09:00:00 0,8 -1,0 7 4 14 8 ZW 1018,2 20
26.01.2021 08:00:00 0,8 -1,0 7 4 18 10 ZW 1016,1 20
26.01.2021 07:00:00 1,1 -1,0 11 6 - - WZW 1016,1 20
26.01.2021 06:00:00 1,2 -0,9 11 6 22 12 WZW 1015,7 20
26.01.2021 05:00:00 1,8 -0,6 11 6 25 14 WZW 1015,0 19
26.01.2021 04:00:00 2,2 -0,2 14 8 - - WZW 1015,1 20
26.01.2021 03:00:00 2,7 0,1 14 8 22 12 WZW 1014,1 20
26.01.2021 02:00:00 2,8 0,1 11 6 22 12 W 1013,5 20
26.01.2021 01:00:00 2,7 0,3 11 6 - - WZW 1013,0 19
26.01.2021 00:00:00 2,7 0,3 11 6 22 12 WZW 1012,1 17
25.01.2021 23:00:00 3,2 0,7 14 8 22 12 W 1013,1 17
25.01.2021 22:00:00 3,0 0,6 14 8 - - WZW 1012,2 16
25.01.2021 21:00:00 3,0 0,4 14 8 25 14 WZW 1012,2 17
25.01.2021 20:00:00 3,0 0,1 18 10 25 14 WZW 1012,1 20
25.01.2021 19:00:00 2,7 0,3 11 6 - - WZW 1010,7 20
25.01.2021 18:00:00 3,2 0,0 11 6 25 14 W 1008,2 20
25.01.2021 17:00:00 4,1 0,0 11 6 29 16 W 1008,5 20
25.01.2021 16:00:00 4,9 -0,8 11 6 - - W 1009,6 20
25.01.2021 15:00:00 4,9 1,2 7 4 14 8 W 1010,2 20
25.01.2021 14:00:00 2,2 0,8 4 2 25 14 N 1006,8 20
25.01.2021 13:00:00 4,5 -0,3 4 2 - - N 1009,3 20
25.01.2021 12:00:00 3,2 0,6 4 2 11 6 N 1010,3 12
25.01.2021 11:00:00 1,8 0,5 4 2 14 8 N 1008,6 5
25.01.2021 10:00:00 0,6 -0,3 11 6 - - N 1003,0 5
25.01.2021 09:00:00 1,2 0,0 11 6 22 12 N 1001,7 8
25.01.2021 08:00:00 1,2 0,4 14 8 22 12 N 1001,0 5
25.01.2021 07:00:00 1,2 0,8 11 6 - - N 1000,7 1,5
25.01.2021 06:00:00 0,8 0,4 4 2 7 4 N 998,9 6
25.01.2021 05:00:00 0,8 0,1 4 2 4 2 N 998,3 10
25.01.2021 04:00:00 0,6 0,1 4 2 - - N 997,2 9
25.01.2021 03:00:00 0,9 0,3 4 2 7 4 N 996,7 10
25.01.2021 02:00:00 1,1 0,3 7 4 18 10 Z 995,0 9
25.01.2021 01:00:00 1,7 0,8 11 6 - - ZZW 996,9 14
25.01.2021 00:00:00 1,6 0,8 11 6 22 12 ZZW 996,8 8
24.01.2021 23:00:00 1,6 0,7 14 8 25 14 Z 997,1 10
24.01.2021 22:00:00 1,2 0,5 14 8 - - Z 997,0 11
24.01.2021 21:00:00 1,1 0,3 18 10 29 16 Z 996,6 20
24.01.2021 20:00:00 0,4 0,1 11 6 18 10 ZZO 994,9 6
24.01.2021 19:00:00 0,6 0,0 14 8 - - ZZO 995,2 4,4
24.01.2021 18:00:00 1,3 0,0 14 8 29 16 ZZO 996,3 11
24.01.2021 17:00:00 2,5 -1,3 14 8 25 14 ZZO 999,1 20
24.01.2021 16:00:00 2,7 -1,2 14 8 - - ZZO 1000,2 19
24.01.2021 15:00:00 2,6 -0,6 14 8 22 12 ZZO 1000,6 20
24.01.2021 14:00:00 2,2 -0,6 14 8 25 14 Z 1002,1 20
24.01.2021 13:00:00 1,9 -0,5 18 10 - - Z 1002,2 19
24.01.2021 12:00:00 1,5 -0,1 11 6 18 10 Z 1003,1 10
24.01.2021 11:00:00 0,8 -0,7 11 6 14 8 ZZW 1001,8 11
24.01.2021 10:00:00 0,4 -1,0 7 4 - - ZZW 1001,8 14
24.01.2021 09:00:00 0,0 -1,3 7 4 14 8 ZW 1001,2 12
24.01.2021 08:00:00 0,0 -1,2 7 4 14 8 ZW 998,2 13
24.01.2021 07:00:00 0,8 -0,5 7 4 - - WZW 999,0 14
24.01.2021 06:00:00 1,0 -0,7 7 4 14 8 W 997,4 19
24.01.2021 05:00:00 1,0 -0,1 7 4 14 8 WZW 997,1 14
24.01.2021 04:00:00 0,9 0,0 7 4 - - W 997,4 14
24.01.2021 03:00:00 1,0 0,0 11 6 29 16 W 997,5 14
24.01.2021 02:00:00 0,6 0,0 4 2 18 10 N 995,7 17
24.01.2021 01:00:00 0,5 0,0 7 4 - - ZW 994,5 13
24.01.2021 00:00:00 0,6 -0,2 7 4 22 12 WNW 994,1 1,8
23.01.2021 23:00:00 1,2 0,2 14 8 25 14 WNW 993,9 15
23.01.2021 22:00:00 1,6 1,1 4 2 - - N 994,2 7
23.01.2021 21:00:00 1,6 1,4 4 2 7 4 N 994,2 3,6
23.01.2021 20:00:00 1,8 1,1 4 2 7 4 N 995,1 10
23.01.2021 19:00:00 1,6 0,8 4 2 - - N 994,7 15
23.01.2021 18:00:00 0,8 0,2 7 4 22 12 WNW 992,5 3,8
23.01.2021 17:00:00 2,2 1,4 11 6 25 14 NW 992,5 12
23.01.2021 16:00:00 3,5 2,7 4 2 - - N 992,7 6
23.01.2021 15:00:00 3,6 2,6 4 2 7 4 N 993,2 7
23.01.2021 14:00:00 3,7 2,6 4 2 18 10 N 993,8 11
23.01.2021 13:00:00 3,7 2,2 11 6 - - Z 994,0 14
23.01.2021 12:00:00 3,8 2,3 11 6 18 10 Z 996,1 16
23.01.2021 11:00:00 3,1 2,0 7 4 14 8 Z 996,6 17
23.01.2021 10:00:00 2,0 1,1 7 4 - - N 996,8 19
23.01.2021 09:00:00 1,5 0,5 7 4 18 10 Z 995,0 20
23.01.2021 08:00:00 2,0 0,9 14 8 25 14 ZZW 994,8 20
23.01.2021 07:00:00 2,5 1,1 18 10 - - ZZW 994,4 20
23.01.2021 06:00:00 2,8 1,3 22 12 32 18 ZZW 994,3 20
23.01.2021 05:00:00 3,1 1,6 22 12 29 16 ZZW 995,0 20
23.01.2021 04:00:00 3,4 1,9 18 10 - - ZZW 995,3 20
23.01.2021 03:00:00 3,6 1,8 18 10 29 16 ZZW 994,6 20
23.01.2021 02:00:00 4,4 2,2 18 10 29 16 ZZW 996,5 20
23.01.2021 01:00:00 4,5 2,3 22 12 - - ZZW 997,1 20
23.01.2021 00:00:00 4,0 2,3 14 8 22 12 Z 997,6 16
22.01.2021 23:00:00 3,6 1,9 14 8 22 12 Z 997,4 16
22.01.2021 22:00:00 3,3 1,7 14 8 - - Z 997,3 17
22.01.2021 21:00:00 3,4 1,4 11 6 14 8 ZZW 996,4 17
22.01.2021 20:00:00 3,7 1,5 11 6 18 10 ZZW 996,4 19
22.01.2021 19:00:00 3,5 1,8 11 6 - - ZZW 995,6 19
22.01.2021 18:00:00 4,1 2,1 7 4 7 4 N 995,0 17
22.01.2021 17:00:00 5,0 2,4 4 2 11 6 N 994,0 18
22.01.2021 16:00:00 6,0 2,7 7 4 - - ZW 993,7 19
22.01.2021 15:00:00 6,6 0,8 11 6 18 10 ZW 994,9 18
22.01.2021 14:00:00 6,6 2,5 11 6 18 10 ZW 996,2 19
22.01.2021 13:00:00 5,3 3,3 11 6 - - ZZW 995,5 18
22.01.2021 12:00:00 4,9 3,2 7 4 14 8 ZW 994,2 20
22.01.2021 11:00:00 3,5 2,6 7 4 14 8 N 995,6 16
22.01.2021 10:00:00 3,0 2,2 11 6 - - ZZW 993,3 17
22.01.2021 09:00:00 2,7 2,1 7 4 14 8 ZW 991,2 14
22.01.2021 08:00:00 2,8 2,2 11 6 18 10 ZW 989,8 17
22.01.2021 07:00:00 2,7 2,0 11 6 - - ZZW 989,3 16
22.01.2021 06:00:00 2,6 2,0 11 6 22 12 ZW 988,3 17
22.01.2021 05:00:00 3,5 2,5 11 6 22 12 ZZW 989,1 20
22.01.2021 04:00:00 3,8 2,6 11 6 - - ZW 988,0 20
22.01.2021 03:00:00 4,0 2,9 14 8 22 12 ZZW 988,2 20
22.01.2021 02:00:00 4,0 3,0 11 6 14 8 ZW 987,0 20
22.01.2021 01:00:00 3,9 2,7 7 4 - - WNW 985,7 20
22.01.2021 00:00:00 4,2 3,2 14 8 29 16 WNW 983,8 12
21.01.2021 23:00:00 5,4 4,6 11 6 54 29 NW 982,6 4,2
21.01.2021 22:00:00 8,8 6,1 32 18 - - ZZW 983,1 20
21.01.2021 21:00:00 9,1 6,7 32 18 54 29 ZZW 983,0 8
21.01.2021 20:00:00 7,2 6,1 18 10 29 16 Z 985,4 10
21.01.2021 19:00:00 5,5 4,9 7 4 - - OZO 987,2 5
21.01.2021 18:00:00 5,6 4,4 11 6 40 21 Z 988,7 4,8
21.01.2021 17:00:00 6,9 3,7 25 14 54 29 ZZW 989,9 8
21.01.2021 16:00:00 7,8 3,5 25 14 - - ZZW 991,2 19
21.01.2021 15:00:00 7,5 3,3 32 18 54 29 ZZW 990,8 20
21.01.2021 14:00:00 7,5 3,3 32 18 50 27 ZZW 991,4 20
21.01.2021 13:00:00 7,1 3,3 29 16 - - ZZW 993,7 20
21.01.2021 12:00:00 6,9 3,2 32 18 50 27 ZZW 993,7 20
21.01.2021 11:00:00 6,4 3,1 29 16 47 25 ZZW 992,3 20
21.01.2021 10:00:00 5,9 2,6 29 16 - - ZZW 993,3 20
21.01.2021 09:00:00 5,8 2,5 29 16 40 21 ZZW 992,0 20
21.01.2021 08:00:00 5,4 1,9 18 10 32 18 ZZW 990,7 19
21.01.2021 07:00:00 6,0 1,7 18 10 - - ZW 989,7 20
21.01.2021 06:00:00 6,5 2,0 25 14 58 31 WZW 988,2 19
21.01.2021 05:00:00 7,3 3,4 29 16 65 35 ZW 987,3 20
21.01.2021 04:00:00 7,3 5,5 40 21 - - WZW 985,0 19
21.01.2021 03:00:00 10,1 7,0 47 25 72 39 Z 982,3 18
21.01.2021 02:00:00 10,0 6,7 47 25 83 45 Z 982,5 7
21.01.2021 01:00:00 10,6 5,8 43 23 - - Z 984,5 20
21.01.2021 00:00:00 11,0 4,7 43 23 68 37 Z 986,5 20
20.01.2021 23:00:00 10,5 4,5 40 21 65 35 Z 988,2 20
20.01.2021 22:00:00 10,8 3,9 36 19 - - Z 990,0 20
20.01.2021 21:00:00 10,2 3,4 32 18 58 31 Z 990,9 20
20.01.2021 20:00:00 9,9 2,7 29 16 43 23 Z 992,1 20
20.01.2021 19:00:00 10,2 2,2 29 16 - - Z 992,8 20
20.01.2021 18:00:00 9,8 2,0 32 18 50 27 Z 993,1 20
20.01.2021 17:00:00 9,4 1,9 29 16 54 29 Z 993,3 20
20.01.2021 16:00:00 9,8 1,9 29 16 - - Z 994,3 20
20.01.2021 15:00:00 9,3 1,5 32 18 50 27 Z 995,1 20
20.01.2021 14:00:00 9,1 2,2 32 18 54 29 Z 995,9 20
20.01.2021 13:00:00 8,3 2,7 29 16 - - Z 996,5 20
20.01.2021 12:00:00 8,0 3,1 32 18 54 29 Z 997,9 20
20.01.2021 11:00:00 8,0 2,8 29 16 50 27 Z 999,0 20
20.01.2021 10:00:00 7,5 2,8 32 18 - - Z 999,1 20

tt = temperatuur
td = dauwpunt
ff = windsnelheid
fx = windstoten
dd = windrichting
ppp = luchtdruk
vv = zicht

Weerstations in de omgeving